DW3929 Weather Reports


time (UTC)temp
F
wind
direction
speed
knots
gust
knots
rain 1hr
in
rain 24hr
in
rain mn
in
humidity
%
barometer
mb
20210920053848 80 331 2.6 7.8 0.00 0.00 0.00 83 1011.2
20210920053355 80 333 3.5 7.8 0.00 0.00 0.00 83 1011.2
20210920052944 80 333 4.3 8.7 0.00 0.00 0.00 83 1011.2
20210920052453 80 331 4.3 10.4 0.00 0.00 0.00 83 1011.1
20210920051941 80 331 5.2 10.4 0.00 0.00 0.00 83 1011.1
20210920051449 80 328 2.6 7.0 0.00 0.00 0.00 83 1011.1
20210920050957 80 337 4.3 7.0 0.00 0.00 0.00 83 1011.2
20210920050443 81 335 4.3 10.4 0.00 0.00 0.00 83 1011.2
20210920045952 80 341 7.0 10.4 0.00 0.00 0.00 83 1011.3
20210920045441 81 317 4.3 6.1 0.00 0.00 0.00 83 1011.2
20210920045242 81 315 5.2 5.2 0.00 0.00 0.00 83 1011.3
20210920042914 81 334 3.5 7.8 0.00 0.00 0.00 80 1011.2
20210920042421 81 328 1.7 7.0 0.00 0.00 0.00 79 1011.1
20210920041913 81 326 3.5 7.0 0.00 0.00 0.00 79 1011.1
20210920041420 81 323 3.5 7.8 0.00 0.00 0.00 78 1011.1
20210920040908 81 313 6.1 7.8 0.00 0.00 0.00 77 1011.1
20210920040416 81 317 6.1 7.8 0.00 0.00 0.00 76 1011.0
20210920035922 81 329 6.1 7.0 0.00 0.00 0.00 76 1011.0
20210920035407 81 329 1.7 7.8 0.00 0.00 0.00 75 1011.0
20210920034915 81 322 6.1 7.8 0.00 0.00 0.00 74 1011.0
20210920034424 81 330 3.5 8.7 0.00 0.00 0.00 73 1011.0
20210920033912 81 338 6.1 8.7 0.00 0.00 0.00 74 1010.9
20210920033420 80 333 4.3 7.0 0.00 0.00 0.00 76 1010.9
20210920032909 78 323 0.0 0.0 0.00 0.00 0.00 79 1010.8
20210920032417 76 331 0.0 0.0 0.00 0.00 0.00 81 1010.7
20210920031925 75 341 0.0 0.0 0.00 0.00 0.00 83 1010.7
20210920031413 75 341 0.0 0.0 0.00 0.00 0.00 84 1010.5
20210920030922 75 341 0.0 0.0 0.00 0.00 0.00 84 1010.5
20210920030411 76 341 0.0 0.0 0.00 0.00 0.00 84 1010.4
20210920025729 76 341 0.0 0.0 0.00 0.00 0.00 83 1010.3
20210920024851 76 341 0.0 0.0 0.00 0.00 0.00 83 1010.3
20210920024338 76 341 0.0 0.0 0.00 0.00 0.00 83 1010.3
20210920023844 77 341 0.0 0.0 0.00 0.00 0.00 82 1010.2
20210920023352 77 341 0.0 0.0 0.00 0.00 0.00 81 1010.2
20210920022840 77 341 0.0 0.0 0.00 0.00 0.00 81 1010.2
20210920022349 77 341 0.0 0.0 0.00 0.00 0.00 80 1010.1
20210920021850 78 341 0.0 0.0 0.00 0.00 0.00 79 1010.1
20210920021339 78 341 0.0 0.0 0.00 0.00 0.00 79 1010.0
20210920020846 78 341 0.0 0.0 0.00 0.00 0.00 78 1009.9
20210920020335 78 341 0.0 0.0 0.00 0.00 0.00 77 1009.9
20210920015844 79 341 0.0 0.0 0.00 0.00 0.00 77 1009.7
20210920015351 79 341 0.0 0.0 0.00 0.00 0.00 76 1009.7
20210920014840 79 341 0.0 0.0 0.00 0.00 0.00 76 1009.6
20210920014349 80 341 0.0 0.0 0.00 0.00 0.00 74 1009.5
20210920013837 80 341 0.0 0.0 0.00 0.00 0.00 74 1009.4
20210920013345 81 341 0.0 0.0 0.00 0.00 0.00 72 1009.3
20210920012850 81 341 0.0 0.0 0.00 0.00 0.00 71 1009.3
20210920012356 82 341 0.0 0.0 0.00 0.00 0.00 71 1009.3
20210920011856 82 341 0.0 0.0 0.00 0.00 0.00 70 1009.3
20210920011342 83 341 0.0 0.0 0.00 0.00 0.00 69 1009.2
20210920010851 83 341 0.0 0.0 0.00 0.00 0.00 67 1009.2
20210920010340 84 341 0.0 0.0 0.00 0.00 0.00 67 1009.2
20210920005849 84 341 0.0 0.0 0.00 0.00 0.00 65 1009.1
20210920005338 85 341 0.0 0.0 0.00 0.00 0.00 64 1009.2
20210920004846 85 341 0.0 0.0 0.00 0.00 0.00 64 1009.2
20210920004354 86 341 0.0 0.0 0.00 0.00 0.00 62 1009.2
20210920003847 87 341 0.0 0.0 0.00 0.00 0.00 61 1009.2
20210920003353 87 341 0.0 0.0 0.00 0.00 0.00 61 1009.1
20210920002838 88 341 0.0 0.0 0.00 0.00 0.00 60 1009.1
20210920002345 89 341 0.0 0.0 0.00 0.00 0.00 58 1009.1
20210920001852 89 341 0.0 0.0 0.00 0.00 0.00 58 1009.1
20210920001339 90 341 0.0 0.0 0.00 0.00 0.00 56 1009.0
20210920000847 91 341 0.0 0.0 0.00 0.00 0.00 54 1009.1
20210920000335 91 341 0.0 0.0 0.00 0.00 0.00 53 1009.0
20210919235843 92 341 0.0 0.0 0.00 0.00 0.00 51 1009.0
20210919235336 92 342 0.0 0.0 0.00 0.00 0.00 51 1009.1
20210919234844 93 341 0.0 0.0 0.00 0.00 0.00 50 1009.1
20210919234354 93 340 0.0 6.1 0.00 0.00 0.00 47 1009.0
20210919233842 93 343 0.0 7.0 0.00 0.00 0.00 47 1009.0
20210919233350 93 355 0.0 7.8 0.00 0.00 0.00 48 1009.1
20210919232854 93 329 4.3 7.8 0.00 0.00 0.00 46 1009.0
20210919232341 94 355 0.9 7.0 0.00 0.00 0.00 49 1009.1
20210919231849 94 342 0.0 6.1 0.00 0.00 0.00 47 1009.0
20210919231337 95 9 0.0 6.1 0.00 0.00 0.00 45 1009.0
20210919230844 95 9 0.9 6.1 0.00 0.00 0.00 47 1009.0
20210919230355 96 355 2.6 8.7 0.00 0.00 0.00 44 1009.0
20210919225841 97 333 4.3 8.7 0.00 0.00 0.00 43 1009.0
20210919225349 98 13 0.9 6.1 0.00 0.00 0.00 43 1009.0
20210919224837 98 11 6.1 7.8 0.00 0.00 0.00 41 1009.1
20210919224346 99 5 3.5 7.8 0.00 0.00 0.00 43 1009.0
20210919223855 99 336 0.0 6.1 0.00 0.00 0.00 42 1009.0
20210919223343 100 346 0.0 7.8 0.00 0.00 0.00 39 1009.0
20210919222851 100 331 5.2 7.8 0.00 0.00 0.00 40 1009.0
20210919222340 100 333 0.0 6.1 0.00 0.00 0.00 41 1009.0
20210919221852 100 238 0.0 0.0 0.00 0.00 0.00 41 1009.0
20210919221339 99 238 0.0 0.0 0.00 0.00 0.00 49 1009.0
20210919220847 98 238 0.0 0.0 0.00 0.00 0.00 49 1009.0
20210919220335 98 238 0.0 0.0 0.00 0.00 0.00 42 1009.0
20210919215843 98 238 0.0 0.0 0.00 0.00 0.00 46 1009.0
20210919215352 98 238 0.0 0.0 0.00 0.00 0.00 40 1009.0
20210919214840 98 237 0.0 0.0 0.00 0.00 0.00 44 1009.1
20210919214348 98 237 0.0 0.0 0.00 0.00 0.00 43 1009.1
20210919213837 99 244 0.0 0.0 0.00 0.00 0.00 42 1009.1
20210919213348 99 244 0.0 0.0 0.00 0.00 0.00 37 1009.2
20210919212850 99 244 0.0 0.0 0.00 0.00 0.00 35 1009.3
20210919212353 100 250 0.0 6.1 0.00 0.00 0.00 40 1009.3
20210919211838 99 253 3.5 6.1 0.00 0.00 0.00 41 1009.3
20210919211346 99 310 1.7 4.3 0.00 0.00 0.00 36 1009.2
20210919210848 99 287 0.0 3.5 0.00 0.00 0.00 38 1009.3
20210919210353 99 285 0.0 2.6 0.00 0.00 0.00 38 1009.3
20210919205839 99 285 0.9 2.6 0.00 0.00 0.00 39 1009.4
20210919205347 99 254 0.0 0.0 0.00 0.00 0.00 40 1009.4
20210919204854 98 253 0.0 0.0 0.00 0.00 0.00 40 1009.5
20210919204341 97 192 0.0 0.0 0.00 0.00 0.00 47 1009.6
20210919203854 97 191 0.0 0.0 0.00 0.00 0.00 40 1009.7
20210919203340 96 189 0.0 0.0 0.00 0.00 0.00 48 1009.7
20210919202847 95 181 0.0 0.0 0.00 0.00 0.00 45 1009.9
20210919202335 94 181 0.0 0.0 0.00 0.00 0.00 54 1010.0
20210919201854 94 180 0.0 0.0 0.00 0.00 0.00 52 1010.1
20210919201339 95 177 0.0 0.0 0.00 0.00 0.00 45 1010.2
20210919200848 96 177 0.0 3.5 0.00 0.00 0.00 51 1010.3
20210919200337 97 174 1.7 3.5 0.00 0.00 0.00 45 1010.4
20210919195844 98 103 0.0 0.0 0.00 0.00 0.00 47 1010.4
20210919195337 99 102 0.0 3.5 0.00 0.00 0.00 43 1010.5
20210919194844 98 103 0.0 3.5 0.00 0.00 0.00 40 1010.6
20210919194352 98 118 0.0 2.6 0.00 0.00 0.00 45 1010.6
20210919193841 98 263 0.0 0.0 0.00 0.00 0.00 45 1010.7
20210919193350 97 264 0.0 2.6 0.00 0.00 0.00 41 1010.8
20210919192856 97 264 0.9 7.8 0.00 0.00 0.00 50 1010.9
20210919192342 96 258 0.0 7.8 0.00 0.00 0.00 44 1011.1
20210919191847 96 244 0.0 5.2 0.00 0.00 0.00 48 1011.2
20210919191350 97 242 0.0 5.2 0.00 0.00 0.00 48 1011.3
20210919190837 97 40 0.0 0.0 0.00 0.00 0.00 50 1011.5
20210919190349 97 40 0.0 0.0 0.00 0.00 0.00 46 1011.6
20210919185838 98 40 0.0 0.0 0.00 0.00 0.00 45 1011.7
20210919185346 98 39 0.0 1.7 0.00 0.00 0.00 45 1011.8
20210919184834 98 40 0.0 2.6 0.00 0.00 0.00 43 1011.9
20210919184343 97 40 0.0 2.6 0.00 0.00 0.00 47 1012.0
20210919183852 97 57 0.0 4.3 0.00 0.00 0.00 46 1012.1
20210919183339 96 17 2.6 4.3 0.00 0.00 0.00 48 1012.2
20210919182851 96 37 0.0 2.6 0.00 0.00 0.00 48 1012.3
20210919182335 95 82 0.0 0.0 0.00 0.00 0.00 54 1012.5
20210919181843 94 92 0.0 0.0 0.00 0.00 0.00 56 1012.5
20210919181336 94 92 0.0 0.0 0.00 0.00 0.00 51 1012.7
20210919180845 93 110 0.0 0.0 0.00 0.00 0.00 53 1012.7
20210919180352 92 111 0.0 0.0 0.00 0.00 0.00 55 1012.8
20210919175840 91 111 0.0 0.0 0.00 0.00 0.00 63 1012.8
20210919175348 91 110 0.0 0.0 0.00 0.00 0.00 64 1012.9
20210919174835 92 110 0.0 0.0 0.00 0.00 0.00 61 1013.0
20210919174342 93 110 0.0 0.0 0.00 0.00 0.00 59 1013.1
20210919173851 93 110 0.0 0.0 0.00 0.00 0.00 54 1013.2
20210919173339 93 110 0.0 0.0 0.00 0.00 0.00 53 1013.3
20210919172850 94 115 0.0 0.0 0.00 0.00 0.00 53 1013.4
20210919172338 94 115 0.0 0.0 0.00 0.00 0.00 51 1013.5
20210919171845 93 115 0.0 0.0 0.00 0.00 0.00 53 1013.6
20210919171354 93 115 0.0 0.0 0.00 0.00 0.00 52 1013.7
20210919170842 93 115 0.0 0.0 0.00 0.00 0.00 52 1013.7
20210919170350 93 115 0.0 0.0 0.00 0.00 0.00 53 1013.8
20210919165838 93 115 0.0 0.0 0.00 0.00 0.00 52 1013.8
20210919165347 93 122 0.0 0.0 0.00 0.00 0.00 54 1013.9
20210919164835 93 129 0.0 0.0 0.00 0.00 0.00 53 1013.9
20210919164348 93 127 0.0 0.0 0.00 0.00 0.00 53 1014.0
20210919163836 93 38 0.0 0.0 0.00 0.00 0.00 56 1014.0
20210919163343 92 38 0.0 0.0 0.00 0.00 0.00 55 1014.0
20210919162952 92 38 0.0 0.0 0.00 0.00 0.00 55 1014.1
20210919162441 92 40 0.0 0.0 0.00 0.00 0.00 56 1014.2
20210919161950 92 40 0.0 0.0 0.00 0.00 0.00 57 1014.3
20210919161458 91 68 0.0 0.0 0.00 0.00 0.00 59 1014.3
20210919160946 91 68 0.0 0.0 0.00 0.00 0.00 59 1014.4
20210919160455 90 62 0.0 0.0 0.00 0.00 0.00 60 1014.4
20210919155943 90 63 0.0 3.5 0.00 0.00 0.00 61 1014.5
20210919155450 90 32 0.0 3.5 0.00 0.00 0.00 61 1014.5
20210919154940 89 111 0.0 0.0 0.00 0.00 0.00 63 1014.5
20210919154443 89 123 0.0 0.0 0.00 0.00 0.00 64 1014.4
20210919152922 87 125 0.0 0.0 0.00 0.00 0.00 69 1014.5
20210919152410 87 140 0.0 0.0 0.00 0.00 0.00 68 1014.6
20210919151919 86 149 0.0 0.0 0.00 0.00 0.00 69 1014.6
20210919151407 85 149 0.0 0.0 0.00 0.00 0.00 73 1014.6
20210919150915 84 167 0.0 0.0 0.00 0.00 0.00 79 1014.5
20210919150422 84 167 0.0 0.0 0.00 0.00 0.00 76 1014.6
20210919145910 83 229 0.0 0.0 0.00 0.00 0.00 82 1014.5
20210919145423 82 231 0.0 0.0 0.00 0.00 0.00 81 1014.5
20210919144911 81 231 0.0 0.0 0.00 0.00 0.00 82 1014.4
20210919144418 79 236 0.0 0.0 0.00 0.00 0.00 88 1014.4
20210919143927 78 236 0.0 0.0 0.00 0.00 0.00 89 1014.4
20210919143415 77 236 0.0 0.0 0.00 0.00 0.00 89 1014.3
20210919142924 76 236 0.0 0.0 0.00 0.00 0.00 92 1014.2
20210919142413 75 236 0.0 0.0 0.00 0.00 0.00 94 1014.3
20210919141922 75 236 0.0 0.0 0.00 0.00 0.00 95 1014.3
20210919141410 74 236 0.0 0.0 0.00 0.00 0.00 97 1014.2
20210919140923 73 236 0.0 0.0 0.00 0.00 0.00 97 1014.3
20210919140412 72 236 0.0 0.0 0.00 0.00 0.00 97 1014.3
20210919135920 71 236 0.0 0.0 0.00 0.00 0.00 97 1014.3
20210919135407 71 236 0.0 0.0 0.00 0.00 0.00 97 1014.3
20210919134916 70 236 0.0 0.0 0.00 0.00 0.00 97 1014.3
20210919134423 69 236 0.0 0.0 0.00 0.00 0.00 97 1014.2
20210919133910 69 236 0.0 0.0 0.00 0.00 0.00 97 1014.2
20210919133419 68 236 0.0 0.0 0.00 0.00 0.00 96 1014.3
20210919132907 68 236 0.0 0.0 0.00 0.00 0.00 96 1014.2
20210919132420 68 236 0.0 0.0 0.00 0.00 0.00 96 1014.3
20210919131925 67 236 0.0 0.0 0.00 0.00 0.00 96 1014.3
20210919131414 67 236 0.0 0.0 0.00 0.00 0.00 96 1014.3
20210919130921 67 236 0.0 0.0 0.00 0.00 0.00 95 1014.3
20210919130410 66 236 0.0 0.0 0.00 0.00 0.00 95 1014.2
20210919125918 66 236 0.0 0.0 0.00 0.00 0.00 95 1014.1
20210919125426 66 236 0.0 0.0 0.00 0.00 0.00 95 1014.0
20210919124935 66 236 0.0 0.0 0.00 0.00 0.00 95 1014.0
20210919124353 66 236 0.0 0.0 0.00 0.00 0.00 95 1013.8
20210919123842 66 236 0.0 0.0 0.00 0.00 0.00 95 1013.8
20210919123334 66 236 0.0 0.0 0.00 0.00 0.00 94 1013.9
20210919122843 66 236 0.0 0.0 0.00 0.00 0.00 94 1013.7
20210919122351 66 236 0.0 0.0 0.00 0.00 0.00 94 1013.7
20210919121839 66 236 0.0 0.0 0.00 0.00 0.00 94 1013.6
20210919121348 66 236 0.0 0.0 0.00 0.00 0.00 94 1013.5
20210919120836 66 236 0.0 0.0 0.00 0.00 0.00 94 1013.5
20210919120344 66 236 0.0 0.0 0.00 0.00 0.00 94 1013.5
20210919115852 66 236 0.0 0.0 0.00 0.00 0.00 94 1013.6
20210919115341 66 236 0.0 0.0 0.00 0.00 0.00 94 1013.6
20210919114853 66 236 0.0 0.0 0.00 0.00 0.00 94 1013.6
20210919114341 66 236 0.0 0.0 0.00 0.00 0.00 94 1013.5
20210919113849 66 236 0.0 0.0 0.00 0.00 0.00 94 1013.5
20210919113336 66 236 0.0 0.0 0.00 0.00 0.00 94 1013.5
20210919112845 66 236 0.0 0.0 0.00 0.00 0.00 94 1013.4
20210919112353 67 236 0.0 0.0 0.00 0.00 0.00 94 1013.4
20210919111841 67 236 0.0 0.0 0.00 0.00 0.00 94 1013.3
20210919111350 67 236 0.0 0.0 0.00 0.00 0.00 94 1013.4
20210919110837 67 236 0.0 0.0 0.00 0.00 0.00 94 1013.4
20210919110349 67 236 0.0 0.0 0.00 0.00 0.00 94 1013.4
20210919105838 67 236 0.0 0.0 0.00 0.00 0.00 94 1013.3
20210919105346 67 236 0.0 0.0 0.00 0.00 0.00 94 1013.3
20210919104834 67 236 0.0 0.0 0.00 0.00 0.00 94 1013.3
20210919104342 67 236 0.0 0.0 0.00 0.00 0.00 94 1013.4
20210919103850 67 236 0.0 0.0 0.00 0.00 0.00 94 1013.4
20210919103338 67 236 0.0 0.0 0.00 0.00 0.00 94 1013.4
20210919102847 67 236 0.0 0.0 0.00 0.00 0.00 94 1013.4
20210919102354 67 236 0.0 0.0 0.00 0.00 0.00 94 1013.5
20210919101845 67 236 0.0 0.0 0.00 0.00 0.00 94 1013.5
20210919101354 67 236 0.0 0.0 0.00 0.00 0.00 94 1013.4
20210919100842 67 236 0.0 0.0 0.00 0.00 0.00 94 1013.4
20210919100352 67 236 0.0 0.0 0.00 0.00 0.00 94 1013.5
20210919095840 67 236 0.0 0.0 0.00 0.00 0.00 94 1013.5
20210919095348 68 236 0.0 0.0 0.00 0.00 0.00 94 1013.5
20210919094836 68 236 0.0 0.0 0.00 0.00 0.00 94 1013.5
20210919094345 68 236 0.0 0.0 0.00 0.00 0.00 93 1013.6
20210919093853 68 236 0.0 0.0 0.00 0.00 0.00 93 1013.6
20210919093346 68 236 0.0 0.0 0.00 0.00 0.00 93 1013.6
20210919092853 68 236 0.0 0.0 0.00 0.00 0.00 93 1013.5
20210919092341 68 236 0.0 0.0 0.00 0.00 0.00 93 1013.6
20210919091849 68 236 0.0 0.0 0.00 0.00 0.00 93 1013.6
20210919091338 68 236 0.0 0.0 0.00 0.00 0.00 93 1013.7
20210919090847 68 236 0.0 0.0 0.00 0.00 0.00 93 1013.8
20210919090335 68 236 0.0 0.0 0.00 0.00 0.00 93 1013.8
20210919085843 68 236 0.0 0.0 0.00 0.00 0.00 93 1013.8
20210919085351 68 236 0.0 0.0 0.00 0.00 0.00 93 1013.8
20210919084844 68 236 0.0 0.0 0.00 0.00 0.00 93 1013.9
20210919084352 68 236 0.0 0.0 0.00 0.00 0.00 93 1013.9
20210919083840 68 236 0.0 0.0 0.00 0.00 0.00 93 1014.0
20210919083349 68 236 0.0 0.0 0.00 0.00 0.00 93 1014.0
20210919082836 69 236 0.0 0.0 0.00 0.00 0.00 93 1013.9
20210919082344 69 236 0.0 0.0 0.00 0.00 0.00 93 1014.0
20210919081853 69 236 0.0 0.0 0.00 0.00 0.00 93 1014.0
20210919081341 69 236 0.0 0.0 0.00 0.00 0.00 93 1014.0
20210919080849 69 236 0.0 0.0 0.00 0.00 0.00 93 1014.1
20210919080341 69 236 0.0 0.0 0.00 0.00 0.00 93 1014.0
20210919075849 69 236 0.0 0.0 0.00 0.00 0.00 93 1014.1
20210919075338 69 236 0.0 0.0 0.00 0.00 0.00 93 1014.1
20210919074846 69 236 0.0 0.0 0.00 0.00 0.00 93 1014.1
20210919074355 69 236 0.0 0.0 0.00 0.00 0.00 93 1014.2
20210919073842 69 236 0.0 0.0 0.00 0.00 0.00 93 1014.3
20210919073351 69 236 0.0 0.0 0.00 0.00 0.00 93 1014.4
20210919072839 69 236 0.0 0.0 0.00 0.00 0.00 93 1014.4
20210919072348 69 236 0.0 0.0 0.00 0.00 0.00 93 1014.4
20210919071840 69 236 0.0 0.0 0.00 0.00 0.00 93 1014.4
20210919071348 69 236 0.0 0.0 0.00 0.00 0.00 93 1014.5
20210919070836 69 236 0.0 0.0 0.00 0.00 0.00 93 1014.5
20210919070343 70 236 0.0 0.0 0.00 0.00 0.00 93 1014.5
20210919065852 70 236 0.0 0.0 0.00 0.00 0.00 93 1014.6
20210919065341 70 236 0.0 0.0 0.00 0.00 0.00 93 1014.4
20210919064850 70 236 0.0 0.0 0.00 0.00 0.00 92 1014.5
20210919064339 70 236 0.0 0.0 0.00 0.00 0.00 92 1014.5
20210919063847 70 236 0.0 0.0 0.00 0.00 0.00 92 1014.5
20210919063339 70 236 0.0 0.0 0.00 0.00 0.00 92 1014.5
20210919062848 70 236 0.0 0.0 0.00 0.00 0.00 92 1014.5
20210919062336 70 236 0.0 0.0 0.00 0.00 0.00 92 1014.4
20210919061845 70 236 0.0 0.0 0.00 0.00 0.00 92 1014.4
20210919061353 70 236 0.0 0.0 0.00 0.00 0.00 92 1014.3
20210919060841 70 236 0.0 0.0 0.00 0.00 0.00 92 1014.3
20210919060350 70 236 0.0 0.0 0.00 0.00 0.00 92 1014.3
20210919055838 70 236 0.0 0.0 0.00 0.00 0.00 92 1014.2
20210919055347 70 236 0.0 0.0 0.00 0.00 0.00 91 1014.2
20210919054839 71 236 0.0 0.0 0.00 0.00 0.00 92 1014.2
20210919054348 71 236 0.0 0.0 0.00 0.00 0.00 92 1014.3